Voltar ao catálogo

LYNK TOWER 4

AtivoComunicaçõesSSO
NORAD 55034·PAYLOAD·🇺🇸 United States

Lançado Jan 3, 2023 de Cape Canaveral Space Force Station

Loading…

Próximas Passagens (próximas 24 horas)

TLE

AtualizadoSource: Space-Track

Época: Sep 14, 2026, 10:01 UTC

1 55034U 23001AB  26257.41739506  .00005757  00000-0  17450-3 0  9994
2 55034  97.3100 315.5147 0008720 148.7888 211.3874 15.34490849205501

Acompanhe LYNK TOWER 4 em tempo real com AllMySat

Download on the App Store